Flag for Norway Weather past 2 weeks in Sarpsborg, Norway

Now
50 °F

Partly sunny.


Feels Like: 45 °F
Forecast: 43 / 55 °F
Wind: 13 mph from South

Location: Rygge

Current Time: May 28, 2015 at 7:00:45 PM

Latest Report: May 28, 2015 at 6:20 PM


Visibility: N/A

Pressure: 29.50 "Hg

Humidity: 88%

Dew point: 46 °F

Location of SarpsborgLocation

Historic Weather in Sarpsborg — Graph

°F

Sarpsborg temperature yesterday

Maximum temperature yesterday: 61 °F (at 1:20 PM)
Minimum temperature yesterday: 43 °F (at 12:50 AM)
Average temperature yesterday: 53 °F

Past Weeks' High & Low Weather Summary

 TemperatureHumidityPressure
High64 °F (May 23, 4:50 PM)100% (May 16, 9:50 PM)30.04 "Hg (May 16, 9:50 PM)
Low34 °F (May 18, 4:50 AM)29% (May 14, 6:50 PM)29.45 "Hg (May 19, 6:50 AM)
Average49 °F71%29.81 "Hg
* Reported May 13 5:20 PM — May 28 5:50 PM, Sarpsborg, Weather by CustomWeather, © 2015

Note: Actual official high and low records may vary slightly from our data, if they occured in-between our weather recording intervals... More about our weather records

Advertising

Sarpsborg weather history for previous 24 hours

 ConditionsComfort  
Time TempWeatherWind HumidityBarometerVisibility
5:50 PM
Thu, May 28
50 °FScattered clouds.14 mph82%29.50 "HgN/A
5:20 PM50 °FBroken clouds.13 mph88%29.50 "HgN/A
4:50 PM52 °FBroken clouds.14 mph82%29.50 "HgN/A
4:20 PM52 °FBroken clouds.12 mph88%29.50 "HgN/A
3:50 PM50 °FLight rain. Partly sunny.10 mph94%29.50 "HgN/A
3:20 PM48 °FPartly sunny.13 mph94%29.53 "HgN/A
2:50 PM48 °FRain. Broken clouds.12 mph94%29.53 "Hg4 mi
2:20 PM46 °FRain. Broken clouds.13 mph93%29.56 "Hg6 mi
1:50 PM46 °FLight rain. Partly sunny.14 mph93%29.56 "Hg6 mi
1:20 PM46 °FLight rain. Partly sunny.14 mph93%29.59 "Hg6 mi
12:50 PM48 °FLight rain. Partly sunny.15 mph87%29.59 "HgN/A
11:50 AM48 °FLight rain. Partly sunny.12 mph87%29.62 "HgN/A
11:20 AM48 °FLight rain. Partly sunny.12 mph87%29.65 "HgN/A
10:50 AM48 °FLight rain. Broken clouds.12 mph87%29.68 "HgN/A
10:20 AM48 °FDrizzle. Partly sunny.10 mph87%29.68 "HgN/A
9:50 AM48 °FLight rain. Partly sunny.12 mph82%29.68 "HgN/A
9:20 AM48 °FDrizzle. Broken clouds.9 mph82%29.71 "HgN/A
8:50 AM48 °FScattered clouds.12 mph82%29.71 "HgN/A
8:20 AM50 °FBroken clouds.10 mph76%29.71 "HgN/A
7:50 AM48 °FPartly sunny.10 mph82%29.71 "HgN/A
7:20 AM48 °FScattered clouds.12 mph82%29.71 "HgN/A
6:50 AM50 °FPartly sunny.9 mph82%29.74 "HgN/A
6:20 AM50 °FPassing clouds.10 mph76%29.74 "HgN/A
5:50 AM48 °FScattered clouds.7 mph82%29.74 "HgN/A
5:20 AM46 °FPartly sunny.5 mph87%29.74 "HgN/A
4:50 AM45 °FQuite cool.5 mph93%29.74 "HgN/A
4:20 AM45 °FQuite cool.3 mph93%29.74 "HgN/A
3:50 AM43 °FQuite cool.7 mph100%29.74 "HgN/A
3:20 AM41 °FQuite cool.3 mph93%29.74 "HgN/A
2:50 AM41 °FQuite cool.3 mph93%29.77 "HgN/A
2:20 AM45 °FQuite cool.6 mph93%29.77 "HgN/A
1:50 AM43 °FQuite cool.No wind93%29.77 "HgN/A
1:20 AM43 °FQuite cool.2 mph87%29.80 "HgN/A
12:50 AM45 °FQuite cool.3 mph81%29.80 "HgN/A
12:20 AM45 °FQuite cool.2 mph81%29.80 "HgN/A
11:50 PM
Wed, May 27
48 °FCool.5 mph71%29.80 "HgN/A
11:20 PM52 °FClear.6 mph62%29.80 "Hg10 mi
10:50 PM54 °FSunny.6 mph58%29.80 "Hg10 mi
10:20 PM54 °FSunny.6 mph63%29.80 "Hg10 mi
9:50 PM55 °FSunny.6 mph63%29.83 "Hg10 mi
9:20 PM55 °FSunny.7 mph63%29.83 "Hg10 mi
8:50 PM57 °FPassing clouds.3 mph55%29.83 "HgN/A
8:20 PM57 °FSunny.8 mph59%29.83 "Hg10 mi
7:50 PM57 °FSunny.10 mph59%29.83 "Hg10 mi
7:20 PM57 °FSunny.9 mph59%29.83 "Hg10 mi
Weather by CustomWeather, © 2015

See weather overviewHow to use our weather pages